Regional Weather Roundup
Issued by NWS

Home | Current Version | Previous Version | Graphics & Text | Print | Product List | Glossary Off
Versions: 1 2 3 4 5 6 7 8 9 10 11 12 13 14 15 16 17 18 19 20 21 22 23 24 25 26 27

000
ASUS45 KBOU 301707
RWRCO

WEATHER ROUNDUP FOR COLORADO
NATIONAL WEATHER SERVICE DENVER/BOULDER CO
1100 AM MDT SAT JUL 30 2016

NOTE: "FAIR" INDICATES FEW OR NO CLOUDS BELOW 12000 FEET WITH NO
SIGNIFICANT WEATHER AND/OR OBSTRUCTIONS TO VISIBILITY.

COZ001>005-013-030-031-301800-
...NORTHWEST COLORADO...

CITY           SKY/WX    TMP DP  RH WIND       PRES   REMARKS
CRAIG          FAIR      79  38  22 N5        30.16F
HAYDEN         FAIR      75  36  23 E7        30.19F
MEEKER         FAIR      80  39  23 E3        30.17F
MOUNT WERNER   NOT AVBL
STEAMBOAT SPGS FAIR      74  41  30 CALM      30.21F
WALDEN         FAIR      73  34  23 SE3       30.30S
$$

COZ006>008-011-301800-
...WEST CENTRAL VALLEYS...

CITY           SKY/WX    TMP DP  RH WIND       PRES   REMARKS
GRAND JUNCTION FAIR      85  39  19 S9        30.06S
MONTROSE       FAIR      77  42  28 N7        30.17S
EAGLE          SUNNY     79  37  22 CALM      30.21F
RIFLE          FAIR      80  41  24 NW3       30.13F
DELTA          NOT AVBL
NUCLA          NOT AVBL
$$

COZ017>023-064>068-301800-
...SOUTHWEST COLORADO...

CITY           SKY/WX    TMP DP  RH WIND       PRES   REMARKS
DURANGO        FAIR      78  43  28 SE6       30.24F
CORTEZ         FAIR      83  45  26 VRB3      30.17F
PAGOSA SPRINGS FAIR      74  36  24 S5        30.33S
TELLURIDE      FAIR      73  37  26 CALM      30.43F
WOLF CREEK PAS FAIR      55  41  58 SW12      30.66S
$$

COZ009-010-012-014-032>034-037-058>063-301800-
...CENTRAL COLORADO...

CITY           SKY/WX    TMP DP  RH WIND       PRES   REMARKS
ASPEN          FAIR      80  38  22 NE8       30.28S
BUENA VISTA    FAIR      74  42  31 SE8       30.29F
COPPER MTN     FAIR      61  19  20 NW26G32   30.61S
BERTHOUD PASS  FAIR      54  37  54 MISG      30.62R
COTTONWOOD PAS FAIR      72  43  35 SE7       30.44S
GUNNISON       FAIR      72  39  30 S6        30.33F
KREMMLING      FAIR      73  34  23 SE3       30.26F
LEADVILLE      FAIR      71  26  18 NW10G22   30.43S
MONARCH PASS   FAIR      59  32  36 SW23      30.72F
SALIDA         FAIR      79  39  23 CALM      30.32F
SUNLIGHT       PTSUNNY   68  34  28 MISG      30.57R
WILKERSON PASS FAIR      63  32  31 W7G16     30.57R
$$

COZ069>075-301800-
...SAN LUIS VALLEY/SANGRE DE CRISTO MOUNTAINS...

CITY           SKY/WX    TMP DP  RH WIND       PRES   REMARKS
ALAMOSA          N/A     73  46  38 MISG      30.29F
LA VETA PASS   FAIR      66  41  39 S13       30.48S
SAGUACHE       FAIR      72  43  35 S7        30.33F
$$

COZ035-036-038>040-301800-
...NORTHERN COLORADO FRONT RANGE...

CITY           SKY/WX    TMP DP  RH WIND       PRES   REMARKS
DENVER INTL AP FAIR      77  59  53 N8        30.07S
DMNS CITY PARK   N/A     75  60  59 NE6G12    30.07S
AURORA         MOSUNNY   74  59  58 N9        30.09S
FRONT RANGE AP MOSUNNY   79  59  50 NW6       30.08S
ERIE MUNI ARPT FAIR      75  60  59 N3        30.06S
BOULDER MUN AP FAIR      77  57  50 CALM      30.07S
CENTENNIAL     FAIR      75  56  51 N10       30.10R
BROOMFIELD     SUNNY     73  59  60 NW5       30.10S
LONGMONT       NOT AVBL
$$

COZ041-046-047-076>085-087-088-301800-
...PIKES PEAK/PALMER DIVIDE AND SOUTHERN FOOTHILLS...

CITY           SKY/WX    TMP DP  RH WIND       PRES   REMARKS
COLO. SPRINGS  FAIR      73  58  59 S6        30.14F
A. F. ACADEMY  MOSUNNY   75  57  52 S7        30.14S
SCHRIEVER AFB  NOT AVBL
ELLICOTT       NOT AVBL
FALCON         NOT AVBL
FORT CARSON    FAIR      74  61  64 CALM      30.10F
LIMON          FAIR      79  56  45 S7        30.07S
MONUMENT HILL  FAIR      82  34  17 NW10G16   30.20R
TRINIDAD       NOT AVBL
$$

COZ042>045-048>051-090-091-301800-
...NORTHEAST COLORADO...

CITY           SKY/WX    TMP DP  RH WIND       PRES   REMARKS
GREELEY ARPT   FAIR      73  63  68 E6        30.05S
AKRON          FAIR      82  55  39 SE13      30.03F
BURLINGTON     FAIR      79  58  48 SE7       30.03S
WRAY           FAIR      81  61  50 SE6       30.00S
STERLING       NOT AVBL
HOLYOKE        NOT AVBL
FORT MORGAN    NOT AVBL
$$

COZ086-089-092>099-301800-
...SOUTHEAST COLORADO...

CITY           SKY/WX    TMP DP  RH WIND       PRES   REMARKS
PUEBLO         FAIR      83  60  45 SW8       30.03F
LA JUNTA       FAIR      79  60  52 VRB7      30.01F
LAMAR          FAIR      84  60  44 VRB6      29.97F
SPRINGFIELD      N/A     86  56  35 SW23G31   30.02F
$$




USA.gov is the U.S. government's official web portal to all federal, state and local government web resources and services.